Regional Weather Roundup
Issued by NWS

Home | Current Version | Previous Version | Graphics & Text | Print | Product List | Glossary On
Versions: 1 2 3 4 5 6 7 8 9 10 11 12 13 14 15 16 17 18 19 20 21 22 23 24 25 26 27 28 29 30 31 32 33 34 35 36 37 38 39 40 41 42 43 44 45 46 47 48 49 50
000
ASUS43 KTOP 240759
RWRKS

WEATHER ROUNDUP FOR KANSAS
NATIONAL WEATHER SERVICE GOODLAND KS
300 AM CDT SUN JUL 24 2016

NOTE:  "FAIR" INDICATES FEW OR NO CLOUDS BELOW 12,000 FEET WITH NO
SIGNIFICANT WEATHER AND/OR OBSTRUCTIONS TO VISIBILITY.

KSZ001>006-013>018-027>032-041>047-240900-
NORTHWEST KANSAS

CITY           SKY/WX    TMP DP  RH WIND       PRES   REMARKS
GOODLAND       CLOUDY    73  57  57 NW7       30.03R
HAYS           CLOUDY    84  59  42 S15       29.87S
HILL CITY      CLOUDY    78  71  79 N8        29.88F
RUSSELL        CLOUDY    87  62  43 SW21G30   29.86R
$$

KSZ061>065-074>080-084>089-240900-
SOUTHWEST KANSAS

CITY           SKY/WX    TMP DP  RH WIND       PRES   REMARKS
DODGE CITY     LGT RAIN  75  66  73 SW14G29   29.97R
ELKHART          N/A     78  61  55 N5          N/A
GARDEN CITY    CLOUDY    76  64  66 NW13      29.96S
GREAT BEND     CLOUDY    81  63  54 SW7       29.90R
LIBERAL        CLOUDY    75  63  64 S8        30.01S
$$

KSZ066>073-081>083-090>101-240900-
SOUTHEAST KANSAS

CITY           SKY/WX    TMP DP  RH WIND       PRES   REMARKS
CHANUTE        CLEAR     78  71  79 S8        29.89S
COFFEYVILLE    CLEAR     79  72  79 S5        29.90R
HUTCHINSON     CLOUDY    83  65  54 S7        29.89S
NEWTON         CLOUDY    83  68  60 S14       29.89F
PARSONS        CLEAR     79  72  79 S3        29.91R
WICHITA INTL   PTCLDY    79  67  66 S7        29.89S
WICHITA JABRA  CLEAR     82  68  62 S10       29.89S
WINFIELD       MOCLDY    82  68  62 S9        29.90S
$$

KSZ007>012-019>026-033>040-048>060-102>105-240900-
NORTHEAST KANSAS

CITY           SKY/WX    TMP DP  RH WIND       PRES   REMARKS
CONCORDIA      MOCLDY    81  67  62 S13       29.85F
EMPORIA        PTCLDY    80  70  71 S10       29.87F
LAWRENCE       CLEAR     78  71  79 SE6       29.86F
MANHATTAN      CLOUDY    85  68  56 SW9       29.84F
OLATHE IND     CLEAR     78  72  81 S8        29.88F
OLATHE EXE     CLEAR     78  72  81 S6        29.88F
SALINA         CLOUDY    87  66  49 S14       29.85S
TOPEKA BILLARD PTCLDY    84  69  60 S5        29.85S
TOPEKA FORBES  PTCLDY    82  71  69 S9        29.86S
$$



USA.gov is the U.S. government's official web portal to all federal, state and local government web resources and services.